Location: Mercogliano
(40.9167°N, 14.7333°E)
Time: 20:23:09
(UTC+00:00)

CZ-2C R/B - Pass Details

Date: 20 January 2021
Orbit: 785 x 870 km, 98.2° (Epoch: 06 March)

Event Time Altitude Azimuth Distance (km) Brightness Sun altitude
Exits shadow 19:27:18 28° 303° (WNW) 1,575 4.5 -38.2°
Maximum altitude 19:27:48 28° 294° (WNW) 1,562 4.5 -38.3°
Drops below altitude 10° 19:32:28 10° 237° (WSW) 2,506 5.6 -39.1°
Sets 19:35:09 0° 226° (SW) 3,444 6.3 -39.7°
